Satellite-Ground Cal/Val Region Overpasses Predictions

Prediction of Satellite NPP Overpassing Cal/Val Region: PacNW

Region Location: (Latitude: 10.00, Longitude: 139.50) to (Latitude: 22.70, Longitude: 165.60).

Table of predicted overpasses for the next 14.0 days since TLE Epoch: 7/26/2013
Interval Starting Time Starting Location Ending Time Ending Location
1 07/26/2013 15:23:36 ( 22.69, 153.99) 07/26/2013 15:27:12 ( 10.01, 150.97)
2 07/27/2013 02:32:42 ( 10.02, 161.50) 07/27/2013 02:36:17 ( 22.64, 158.49)
3 07/27/2013 15:04:36 ( 22.69, 158.75) 07/27/2013 15:08:12 ( 10.02, 155.73)
4 07/28/2013 02:14:31 ( 12.90, 165.59) 07/28/2013 02:17:18 ( 22.70, 163.23)
5 07/28/2013 03:55:12 ( 10.02, 140.88) 07/28/2013 03:56:52 ( 15.89, 139.51)
6 07/28/2013 14:45:36 ( 22.70, 163.50) 07/28/2013 14:49:12 ( 10.02, 160.48)
7 07/29/2013 03:36:11 ( 10.02, 145.63) 07/29/2013 03:39:47 ( 22.70, 142.61)
8 07/29/2013 14:29:44 ( 11.61, 165.60) 07/29/2013 14:30:11 ( 10.02, 165.24)
9 07/29/2013 16:08:06 ( 22.64, 142.87) 07/29/2013 16:11:41 ( 10.02, 139.86)
10 07/30/2013 03:17:11 ( 10.01, 150.39) 07/30/2013 03:20:47 ( 22.69, 147.36)
11 07/30/2013 15:49:06 ( 22.64, 147.62) 07/30/2013 15:52:41 ( 10.02, 144.62)
12 07/31/2013 02:58:10 ( 10.01, 155.14) 07/31/2013 03:01:46 ( 22.69, 152.12)
13 07/31/2013 15:30:05 ( 22.65, 152.38) 07/31/2013 15:33:40 ( 10.03, 149.37)
14 08/01/2013 02:39:10 ( 10.01, 159.90) 08/01/2013 02:42:46 ( 22.69, 156.87)
15 08/01/2013 15:11:05 ( 22.65, 157.13) 08/01/2013 15:14:40 ( 10.03, 154.12)
16 08/02/2013 02:20:09 ( 10.01, 164.65) 08/02/2013 02:23:45 ( 22.69, 161.63)
17 08/02/2013 14:52:04 ( 22.65, 161.89) 08/02/2013 14:55:39 ( 10.03, 158.88)
18 08/03/2013 03:42:39 ( 10.01, 144.03) 08/03/2013 03:46:15 ( 22.69, 141.01)
19 08/03/2013 14:34:17 ( 18.37, 165.59) 08/03/2013 14:36:39 ( 10.03, 163.63)
20 08/03/2013 16:14:34 ( 22.65, 141.27) 08/03/2013 16:16:37 ( 15.43, 139.51)
21 08/04/2013 03:23:39 ( 10.01, 148.79) 08/04/2013 03:27:15 ( 22.69, 145.76)
22 08/04/2013 15:55:33 ( 22.65, 146.02) 08/04/2013 15:59:08 ( 10.03, 143.01)
23
